sat.trackr.live / text

‹ back to catalog

STARLINK-37467

NORAD 68855 · 2026-094S

PAYLOAD ACTIVE UNKNOWN

§ Identity

Operator
Country
US
Launch date
2026-04-26
Launch site
AFWTR
Launch vehicle
Mass (kg)
RCS (m²)

Purposes: comms

External: N2YO · Heavens-Above · Gunter

§ Orbital elements

Epoch: 2026-05-25T04:00:03.998880Z

Period
92.95 min
Inclination
97.2846°
Eccentricity
0.0001831
Mean motion
15.49169811 rev/d
Perigee alt
417.9 km
Apogee alt
420.4 km
Semi-major
6,797.3 km
B*
-3.1591e-4
RAAN
159.9578°
Arg perigee
83.4260°
Mean anomaly
215.8138°
Rev number
567

§ Raw data

STARLINK-374671 68855U 26094S   26145.16671295 -.00017224  00000+0 -31591-3 0  99972 68855  97.2846 159.9578 0001831  83.4260 215.8138 15.49169811  5671

JSON: /api/v1/satellites/68855 · /tle

For live sub-satellite position, see the globe view (requires WebGL).

§ Visibility from observer

Set your observer location to see the next 7 days of passes ≥ 10°. The values pass through the URL so the page stays shareable.

No JS? Fill the form by hand. The geolocation button needs JavaScript.